Erie, PA

2:34 PM EST on November 12, 2019 (GMT -0500)
Erie International

Weather History for KERI - September, 2019

Change the Weather History Date:

Saturday, September 7, 2019

  Actual Average Record
Temperature  
Mean Temperature 66 °F 67 °F  
Max Temperature 72 °F 75 °F 92 °F (1960)
Min Temperature 59 °F 59 °F 41 °F (1962)
Degree Days  
Heating Degree Days 0 2  
Month to date heating degree days 4 8  
Since 1 July heating degree days 5 26  
Cooling Degree Days 0 3  
Month to date cooling degree days 26 27  
Year to date cooling degree days 716 585  
Growing Degree Days 16 (Base 50)    
Moisture  
Dew Point 57 °F    
Average Humidity 75    
Maximum Humidity 90    
Minimum Humidity 61    
Precipitation  
Precipitation 0.01 in 0.14 in 1.32 in (1996)
Month to date precipitation 1.31 0.93  
Year to date precipitation 27.63 26.76  
Snow  
Snow 0.00 in 0.00 in - ()
Month to date snowfall 0.0 0.0  
Since 1 July snowfall 0.0 0.0  
Since 1 September snowfall 0.0 0.0  
Snow Depth 0.00 in    
Sea Level Pressure  
Sea Level Pressure 29.94 in    
Wind  
Wind Speed 4 mph ()    
Max Wind Speed 17 mph    
Max Gust Speed 23 mph    
Visibility 10.0 miles    
Events      
T = Trace of Precipitation, MM = Missing Value Source: Averaged Metar Reports

Daily Weather History Graph

Daily Weather History Graph

Search for Another Location

Airport or City:

Astronomy

Sep. 07, 2019 Rise Set
Actual Time 6:52 AM EDT 7:44 PM EDT
Civil Twilight 6:23 AM EDT 8:12 PM EDT
Nautical Twilight 5:49 AM EDT 8:46 PM EDT
Astronomical Twilight 5:14 AM EDT 9:21 PM EDT
Moon 4:03 PM EDT (9/7) 12:38 AM EDT (9/7)
Length of Visible Light 13h 49m
Length of Day
12h 52m
Waxing Gibbous, 65% of the Moon is Illuminated
Sep 7
Waxing Gibbous
Sep 14
Full
Sep 21
Last Quarter
Sep 28
New
Oct 5
First Quarter

Hourly Weather History & Observations

Time (EDT) Temp. Dew Point Humidity Pressure Visibility Wind Dir Wind Speed Gust Speed Precip Events Conditions
12:51 AM 61.0 °F 57.0 °F 87% 29.89 in 10.0 mi Calm Calm - N/A   Overcast
1:51 AM 61.0 °F 55.9 °F 83% 29.89 in 10.0 mi South 3.5 mph - N/A   Overcast
2:51 AM 61.0 °F 55.9 °F 83% 29.89 in 10.0 mi South 3.5 mph - N/A   Overcast
3:51 AM 60.1 °F 55.9 °F 86% 29.89 in 10.0 mi SSW 3.5 mph - N/A   Mostly Cloudy
4:51 AM 59.0 °F 55.9 °F 90% 29.89 in 10.0 mi Calm Calm - N/A   Mostly Cloudy
5:51 AM 60.1 °F 55.9 °F 86% 29.91 in 10.0 mi South 3.5 mph - N/A   Overcast
6:16 AM 60.1 °F 55.9 °F 86% 29.91 in 10.0 mi East 3.5 mph - N/A   Mostly Cloudy
6:51 AM 60.1 °F 55.9 °F 86% 29.91 in 10.0 mi Calm Calm - N/A   Overcast
7:11 AM 60.1 °F 55.9 °F 86% 29.93 in 10.0 mi SSE 3.5 mph - N/A   Overcast
7:51 AM 62.1 °F 57.0 °F 84% 29.93 in 10.0 mi Calm Calm - N/A   Overcast
8:23 AM 62.1 °F 57.0 °F 84% 29.93 in 10.0 mi SSE 4.6 mph - N/A   Overcast
8:51 AM 63.0 °F 57.0 °F 81% 29.94 in 10.0 mi South 3.5 mph - N/A   Overcast
9:20 AM 64.0 °F 57.9 °F 80% 29.95 in 10.0 mi SSW 4.6 mph - N/A   Overcast
9:51 AM 64.9 °F 59.0 °F 81% 29.94 in 10.0 mi SSW 3.5 mph - N/A   Overcast
10:51 AM 66.9 °F 55.9 °F 68% 29.94 in 10.0 mi WNW 4.6 mph - N/A   Overcast
11:51 AM 69.1 °F 57.0 °F 65% 29.95 in 10.0 mi West 6.9 mph - N/A   Overcast
12:51 PM 70.0 °F 55.9 °F 61% 29.94 in 10.0 mi West 8.1 mph - N/A   Mostly Cloudy
1:51 PM 69.1 °F 55.9 °F 63% 29.94 in 10.0 mi Variable 5.8 mph - N/A   Overcast
2:14 PM 70.0 °F 57.9 °F 65% 29.94 in 10.0 mi WNW 9.2 mph - N/A   Mostly Cloudy
2:51 PM 70.0 °F 57.9 °F 65% 29.94 in 10.0 mi West 11.5 mph - N/A   Partly Cloudy
3:51 PM 71.1 °F 57.9 °F 63% 29.94 in 10.0 mi WNW 11.5 mph - N/A   Scattered Clouds
4:51 PM 71.1 °F 57.0 °F 61% 29.94 in 10.0 mi WSW 13.8 mph 20.7 mph N/A   Scattered Clouds
5:51 PM 69.1 °F 57.0 °F 65% 29.95 in 10.0 mi West 9.2 mph - N/A   Scattered Clouds
6:11 PM 69.1 °F 57.0 °F 65% 29.95 in 10.0 mi West 8.1 mph - N/A   Mostly Cloudy
6:42 PM 69.1 °F 55.9 °F 63% 29.96 in 10.0 mi WSW 11.5 mph - N/A   Scattered Clouds
6:51 PM 69.1 °F 57.0 °F 65% 29.96 in 10.0 mi West 8.1 mph 19.6 mph N/A   Scattered Clouds
7:51 PM 68.0 °F 55.0 °F 63% 29.96 in 10.0 mi West 9.2 mph - N/A   Partly Cloudy
8:22 PM 68.0 °F 57.0 °F 68% 29.97 in 10.0 mi Variable 5.8 mph - N/A   Mostly Cloudy
8:51 PM 66.0 °F 57.0 °F 73% 29.97 in 10.0 mi SSW 5.8 mph - N/A   Mostly Cloudy
9:36 PM 63.0 °F 57.0 °F 81% 29.98 in 10.0 mi SSW 6.9 mph - N/A   Scattered Clouds
9:51 PM 63.0 °F 57.0 °F 81% 29.98 in 10.0 mi SSW 8.1 mph - N/A   Partly Cloudy
10:51 PM 62.1 °F 57.0 °F 84% 29.98 in 10.0 mi South 6.9 mph - N/A   Partly Cloudy
11:51 PM 63.0 °F 57.0 °F 81% 29.97 in 10.0 mi SSW 6.9 mph - N/A   Clear